TIME,DELAY(SENSOR),PRES,T(CTD),SAL,OXYGEN,RAWTEMP,T(OPTODE),TCPHASE,FLUOR,BETA(BETA700),BETA(BETA412),BETA(BETA440),CDOM,C(CSC),ED(ED412.40),ED(ED444.00),ED(ED489.70),ED(ED554.30),LU(LU411.80),LU(LU443.40),LU(LU489.60),LU(LU554.10),COMP,TILTX,TILTX(TILTY),CHECK
1353619558,5809,495.5400085449219000,6.3232998847961430,34.1445999145507800,71.5684280395507800,608.7625732421875000,6.3008370399475100,50.0499305725097660,52,104,94,79,78,15143,2147749851,2147420598,2148003108,2147872448,2147629458,2147072521,2148248155,2147196699,704,4,13,1930
1353619675,5807,484.2000122070312500,6.4422001838684080,34.1349983215332000,74.5819168090820300,604.9215087890625000,6.4251689910888670,49.6246604919433600,52,105,87,80,80,15141,2147747245,2147421741,2148005394,2147875154,2147629394,2147073261,2148250148,2147199204,638,4,12,299
1353619790,5804,472.5799865722656000,6.6083998680114750,34.1203002929687500,81.1327972412109400,600.0277709960938000,6.5833678245544430,48.7781715393066400,52,105,87,81,79,15141,2147749888,2147421942,2148005376,2147870208,2147629001,2147076736,2148249801,2147201170,111,4,13,20816
1353619895,5812,461.9899902343750000,6.6936001777648930,34.1167984008789060,86.3916091918945300,597.2814941406250000,6.6720490455627440,48.1329689025878900,51,103,91,81,79,15144,2147749778,2147420836,2148010432,2147871149,2147627510,2147077430,2148250130,2147196918,379,4,13,60706
1353620010,5806,450.5100097656250000,6.7765002250671390,34.1083984375000000,90.0671234130859400,594.6226806640625000,6.7578330039978030,47.6814117431640600,51,104,86,80,79,15142,2147747922,2147420114,2148004992,2147872045,2147630518,2147077046,2148249846,2147200301,909,5,13,39396
1353620113,5809,440.1300048828125000,6.9415001869201660,34.0899009704589840,98.8529129028320300,589.6260986328125000,6.9188728332519530,46.6538505554199200,51,104,89,79,79,15144,2147748059,2147419958,2148005504,2147872082,2147628589,2147081170,2148247643,2147201563,1915,4,13,8407
1353620231,5808,429.7200012207031000,7.1732001304626465,34.0819015502929700,109.7003021240234400,582.0056762695312000,7.1640281677246090,45.4195289611816400,50,104,89,79,77,15142,2147743990,2147419291,2148005385,2147872393,2147627437,2147081929,2148241938,2147202240,1956,4,13,51498
1353620382,5808,418.6600036621094000,7.4391999244689940,34.0831985473632800,119.5506973266601600,573.8662719726562000,7.4253010749816895,44.3246803283691400,50,104,87,80,77,15144,2147747090,2147420324,2148004105,2147870994,2147627200,2147082340,2148242477,2147201270,2375,4,13,17960
1353620538,5810,407.0499877929687500,7.7418999671936035,34.0847015380859400,127.3848037719726600,564.3903198242188000,7.7287387847900390,43.4355506896972660,51,103,90,80,76,15141,2147743579,2147417325,2148005632,2147872758,2147625517,2147087286,2148239277,2147202889,1453,4,13,9836
1353620665,5808,396.3399963378906000,8.0153999328613280,34.0876998901367200,135.6407012939453000,555.4882202148438000,8.0130939483642580,42.5452804565429700,50,103,89,81,77,15142,2147742710,2147420361,2148005979,2147871232,2147624877,2147087780,2148235885,2147205412,1721,4,13,3543
1353620806,5807,385.5799865722656000,8.1610002517700200,34.0913009643554700,139.4261016845703000,551.4431762695312000,8.1420793533325200,42.1479301452636700,51,105,89,79,75,15142,2147741056,2147418724,2147999963,2147873563,2147621412,2147087195,2148238912,2147198765,1717,4,13,57142
1353620957,5810,374.3900146484375000,8.3034000396728520,34.0933990478515600,143.6204071044922000,545.5883789062500000,8.3285350799560550,41.6913185119628900,50,106,88,79,74,15138,2147739373,2147421814,2148002834,2147872484,2147622976,2147090340,2148240676,2147200877,1052,4,13,52715
1353621116,5806,361.3800048828125000,8.6281003952026370,34.0928001403808600,153.7129974365234400,536.6052856445312000,8.6140804290771480,40.7101402282714840,51,106,92,81,75,15138,2147739757,2147420754,2148004589,2147873325,2147620882,2147087186,2148231232,2147200438,1778,4,13,43830
1353621232,5808,349.0100097656250000,8.7750997543334960,34.0952987670898440,159.1313018798828000,531.8289184570312000,8.7656478881835940,40.2021408081054700,50,104,91,80,74,15142,2147737033,2147423296,2148005394,2147874294,2147619218,2147094217,2148232173,2147204617,2373,4,13,60431
1353621335,5813,337.0299987792969000,9.0277004241943360,34.0928001403808600,164.3367004394531200,523.6635131835938000,9.0243425369262700,39.6635818481445300,50,107,88,81,74,15141,2147738614,2147423140,2148008000,2147871945,2147619355,2147101760,2148233389,2147203136,46,4,12,3487
1353621422,5805,327.2200012207031000,9.2080001831054690,34.0917015075683600,169.6988983154297000,517.9522705078125000,9.2049865722656250,39.1685295104980500,50,105,88,80,74,15140,2147736576,2147424109,2148008923,2147870125,2147618742,2147096256,2148234852,2147202651,478,4,13,48057
1353621533,5806,316.5899963378906000,9.6716003417968750,34.0978012084960940,174.9474029541015600,503.5510864257812500,9.6594228744506840,38.5433998107910160,50,105,87,81,73,15140,2147734793,2147422674,2148010532,2147870793,2147617947,2147096557,2148233005,2147198829,1631,4,13,13542
1353621672,5808,305.5299987792969000,10.0298995971679690,34.1152992248535160,184.2326965332031200,491.4031066894531000,10.0416202545166020,37.6953811645507800,49,107,84,81,72,15140,2147734756,2147422509,2148008137,2147871232,2147612370,2147103314,2148229961,2147202898,2719,4,14,16367
1353621825,5810,295.3299865722656000,10.3028001785278320,34.1151008605957000,192.4414978027343800,482.7806091308594000,10.3122901916503900,37.0096397399902340,49,106,90,81,71,15135,2147736374,2147426139,2148011529,2147871652,2147612041,2147105517,2148230701,2147201545,2306,4,13,9861
1353622012,5810,284.6900024414062500,10.6856002807617190,34.1193008422851560,200.3737945556640600,470.8428955078125000,10.6862401962280270,36.3125190734863300,49,108,92,81,71,15136,2147732160,2147424073,2148010157,2147873828,2147609353,2147101229,2148226029,2147206290,2502,3,13,10840
1353622192,5806,273.1199951171875000,11.3318004608154300,34.1279983520507800,207.7229003906250000,450.4638061523437500,11.3225898742675780,35.5353088378906250,49,104,87,81,70,15142,2147729490,2147426230,2148019474,2147870674,2147606253,2147107163,2148224594,2147205092,1818,3,13,20900
1353622355,5808,262.2099914550781000,11.6586999893188480,34.1449012756347660,211.4539947509765600,439.9403991699219000,11.6502504348754880,35.1485214233398440,49,104,87,81,70,15140,2147729115,2147429376,2148030061,2147873033,2147603776,2147121956,2148227264,2147204818,415,4,13,21864
1353622503,5809,249.6999969482422000,12.0740003585815430,34.1603012084960940,214.0968933105468800,426.2872924804687500,12.0744695663452150,34.7794303894043000,50,105,90,80,69,15137,2147730130,2147434660,2148045275,2147873910,2147600969,2147127561,2148236498,2147206939,1647,4,13,50032
1353622606,5807,239.4299926757812500,12.5141000747680660,34.1799011230468750,210.6681060791015600,412.2159118652344000,12.5107002258300780,34.7533302307128900,49,103,86,80,69,15134,2147728832,2147442998,2148069083,2147873837,2147601746,2147131126,2148248173,2147208548,3035,4,14,33048
1353622723,5808,227.9600067138672000,13.1729001998901370,34.2153015136718750,214.0225067138672000,390.8727111816406000,13.1706104278564450,34.2304611206054700,48,103,86,80,69,15136,2147729993,2147460608,2148109851,2147874002,2147597577,2147143369,2148256841,2147212388,3029,3,13,56444
1353622838,5809,216.1499938964843800,13.8542003631591800,34.2668991088867200,213.0516052246093800,368.1513061523437500,13.8710699081420900,33.9375495910644500,50,103,89,80,69,15136,2147732050,2147484032,2148158363,2147873865,2147600576,2147161197,2148280420,2147213485,2012,3,14,51419
1353622953,5808,205.1799926757812500,14.9711999893188480,34.3791007995605500,214.6726989746093800,333.1564941406250000,14.9463901519775390,33.3230209350585940,49,103,87,79,67,15134,2147730633,2147496694,2148188278,2147874404,2147595629,2147182902,2148294043,2147214299,1479,4,13,50670
1353623051,5810,197.3000030517578000,15.3513002395629880,34.4304008483886700,218.0923004150390600,320.5534057617187500,15.3327999114990230,32.9505195617675800,49,103,87,80,67,15131,2147732416,2147519177,2148228882,2147874861,2147595748,2147193673,2148306112,2147217609,929,3,13,14193
1353623106,5809,193.6399993896484400,15.5269002914428710,34.4550018310546900,218.5055999755859400,314.5585937500000000,15.5164604187011720,32.8407096862793000,48,102,89,81,66,15133,2147738294,2147531492,2148251218,2147874962,2147591067,2147200941,2148315867,2147220077,455,3,14,54423
1353623161,5806,190.3399963378906200,15.6501998901367190,34.4705009460449200,218.4230957031250000,309.9780883789062500,15.6567497253417970,32.7784500122070300,48,106,88,81,67,15134,2147741485,2147543497,2148276635,2147875465,2147590966,2147218148,2148329682,2147219657,2941,4,14,29310
1353623240,5807,186.1300048828125000,15.9288997650146480,34.5069999694824200,218.5151062011718800,301.2427978515625000,15.9241504669189450,32.6474494934082000,49,102,89,80,66,15130,2147745664,2147566646,2148320146,2147870390,2147592484,2147230756,2148348827,2147221650,3233,3,13,23748
1353623319,5809,182.3999938964843800,16.1569995880126950,34.5373992919921900,218.3665924072265600,293.9829101562500000,16.1462898254394530,32.5507202148437500,49,104,86,81,66,15130,2147757065,2147599012,2148377490,2147874038,2147595730,2147256539,2148378742,2147223643,2808,3,14,39439
1353623400,5807,178.3099975585937500,16.2315006256103500,34.5500984191894500,218.4779968261718800,289.8515014648437500,16.2726593017578120,32.4855995178222660,49,102,86,81,67,15131,2147775067,2147669028,2148511734,2147870701,2147602285,2147296411,2148443200,2147229933,2175,3,14,49203
1353623467,5808,174.3999938964843800,16.7248992919921880,34.6120986938476560,217.8504943847656200,275.7150878906250000,16.7048797607421880,32.3177795410156250,48,102,87,81,65,15128,2147783753,2147698642,2148552758,2147875364,2147607186,2147309513,2148465554,2147233334,1648,3,14,7735
1353623534,5807,170.2899932861328000,16.7490005493164060,34.6198997497558600,218.6197967529297000,274.1705017089844000,16.7520904541015620,32.2548294067382800,49,103,88,80,67,15129,2147803629,2147747547,2148645312,2147874486,2147614738,2147343616,2148508434,2147233636,1183,3,15,2858
1353623601,5808,165.7599945068359400,17.3192996978759770,34.6945991516113300,217.7624969482422000,256.9346008300781000,17.2787208557128900,32.0577011108398440,51,104,87,79,66,15124,2147825563,2147805979,2148747364,2147873874,2147624566,2147381092,2148562587,2147237403,1388,3,15,39365
1353623656,5811,162.5599975585937500,17.4841995239257800,34.7234001159668000,218.2933959960937500,250.3137054443359400,17.4809608459472660,31.9367198944091800,51,105,87,80,65,15123,2147847122,2147847625,2148815680,2147875099,2147630454,2147405723,2148593481,2147241371,1230,3,15,50315
1353623737,5807,158.1300048828125000,17.7273998260498050,34.7583007812500000,219.0045928955078000,242.2734985351562500,17.7265205383300780,31.7869796752929700,52,105,89,81,65,15123,2147880566,2147931017,2148949979,2147877302,2147643904,2147456777,2148664109,2147245833,3363,3,15,57743
1353623816,5810,154.4100036621093800,17.9892005920410160,34.7980003356933600,219.5881958007812500,234.1163940429687500,17.9756298065185550,31.6429996490478500,52,103,89,81,64,15123,2147942674,2148068068,2149188141,2147876854,2147668132,2147541906,2148784438,2147254884,2916,3,15,38867
1353623907,5806,150.9400024414062500,18.2271003723144530,34.8335990905761700,219.8329010009765600,225.3282012939453000,18.2440109252929700,31.5089702606201170,53,102,90,80,66,15122,2147962953,2148077110,2149199433,2147878043,2147675218,2147561554,2148796635,2147257874,2887,3,15,26868
1353624024,5805,147.2100067138672000,18.9036998748779300,34.9292984008789060,220.0729980468750000,204.2660980224609400,18.8872604370117200,31.2084007263183600,55,105,91,80,65,15115,2147978816,2148068635,2149137609,2147879104,2147688036,2147557641,2148756507,2147252763,2421,3,15,65209
1353624163,5811,143.1499938964843800,19.2716007232666000,34.9903984069824200,222.1327972412109400,192.0032958984375000,19.2618999481201170,30.9361305236816400,56,106,85,82,63,15109,2148043986,2148168640,2149292964,2147880128,2147715008,2147631122,2148836470,2147261485,2609,2,15,43233
1353624290,5807,138.7700042724609400,19.4692001342773440,35.0166015625000000,223.1867980957031200,185.4295043945312500,19.4627895355224600,30.7937297821044920,60,104,88,81,63,15108,2148143186,2148319296,2149526400,2147881691,2147762130,2147727936,2148949586,2147269101,1573,2,15,44252
1353624389,5809,134.3200073242187500,19.8792991638183600,35.0670013427734400,223.5455017089843800,173.8914031982422000,19.8155097961425780,30.6212005615234380,62,105,90,81,63,15105,2148306523,2148587172,2149948013,2147885229,2147835328,2147902217,2149166820,2147287954,1106,3,15,1246
1353624468,5806,130.4900054931640600,20.2780990600585940,35.1193008422851560,224.0812072753906200,160.9147033691406200,20.2124290466308600,30.4217796325683600,66,107,87,82,63,15101,2148602916,2149083913,2150783753,2147894985,2147967488,2148200868,2149570825,2147319460,1113,3,15,35153
1353624559,5808,126.8600006103515600,20.6501007080078120,35.1539001464843750,225.7705993652343800,148.4252929687500000,20.5947303771972660,30.1724700927734380,69,108,87,81,62,15098,2148745453,2149273956,2151058176,2147899684,2148037147,2148330313,2149719277,2147331766,1337,3,15,55912
1353624988,5809,122.2200012207031200,21.3656005859375000,35.2130012512207000,231.9114990234375000,123.7898025512695300,21.3498191833496100,29.5522994995117200,79,116,92,83,63,15077,2149118363,2149770112,2151812690,2147908132,2148209609,2148628918,2150076196,2147356644,673,2,15,52768
1353625055,5807,118.5699996948242200,21.5869998931884770,35.2182006835937500,232.1793975830078000,117.0975036621093800,21.5552196502685550,29.4530296325683600,80,111,92,83,61,15078,2149258998,2149933549,2152033645,2147918144,2148273517,2148716425,2150173074,2147367442,1129,3,16,45513
1353625146,5806,115.3000030517578100,21.7551002502441400,35.2261009216308600,233.6770019531250000,112.6501007080078100,21.6917800903320300,29.3247299194335940,88,114,86,83,61,15069,2149558436,2150321600,2152587437,2147928283,2148403730,2148917019,2150403510,2147390162,1067,3,15,18846
1353625321,5809,110.6699981689453100,22.1161994934082030,35.2253990173339840,236.9344940185547000,99.3806076049804700,22.0996093750000000,29.0027198791503900,95,117,90,83,61,15044,2149910729,2150683949,2153077604,2147940617,2148552384,2149072320,2150594486,2147408265,1677,2,15,19885
1353625412,5809,106.6900024414062500,22.2178993225097660,35.2248001098632800,237.8311004638672000,95.4819107055664000,22.2195396423339840,28.9119606018066400,100,119,91,82,61,15047,2150625709,2151590582,2154410806,2147974857,2148857152,2149545188,2151171483,2147461385,2426,2,15,42270
1353625503,5809,102.6100006103515600,22.3500003814697270,35.2209014892578100,238.7561035156250000,91.6461563110351600,22.3375892639160160,28.8208293914794920,103,119,91,83,63,15041,2151723456,2152969700,2156403465,2148025581,2149323245,2150232603,2152024996,2147535268,3061,2,16,54068
1353625605,5806,98.8199996948242200,22.6725006103515620,35.2109985351562500,238.7913970947265600,82.5827331542968800,22.6167297363281250,28.7045707702636720,105,120,90,82,61,15027,2152375917,2153550546,2156944740,2148056402,2149590180,2150463360,2152201883,2147559945,3091,2,15,18024
1353625660,5808,97.2500000000000000,22.9426002502441400,35.2019996643066400,239.4779052734375000,72.9683609008789000,22.9131793975830080,28.5522594451904300,121,121,90,84,61,15014,2153196096,2154569929,2158337828,2148090614,2149947501,2150940470,2152792320,2147616493,2164,2,15,47044
1353625835,5808,95.6500015258789000,23.0713996887207030,35.1974983215332000,242.2062988281250000,68.2765884399414000,23.0579700469970700,28.3704109191894530,125,122,92,86,60,15007,2155485394,2157301888,2161976274,2148176109,2150869467,2152086601,2154166354,2147747172,1710,2,15,62522
1353625938,5810,92.5899963378906200,23.2033996582031250,35.1962013244628900,243.3240966796875000,63.8703193664550800,23.1940498352050780,28.2656593322753900,133,127,91,82,61,14985,2158944118,2161548617,2167741897,2148354441,2152248704,2153816667,2156257728,2147959186,2199,1,16,52824
1353625993,5809,90.3600006103515600,23.2448005676269530,35.1964988708496100,243.7805938720703000,62.4483108520507800,23.2379798889160160,28.2278003692626950,132,124,93,83,61,14972,2157171849,2158780882,2163053705,2148262482,2151545901,2152537572,2154446381,2147805092,1709,2,16,63278
1353626048,5808,88.3600006103515600,23.3544006347656250,35.1935005187988300,243.7993011474609400,58.7115898132324200,23.3534603118896500,28.1804409027099600,132,124,90,85,61,14979,2157493787,2158854454,2162697225,2148267547,2151645604,2152464411,2154246619,2147795968,1625,1,16,23513
1353626103,5810,86.8300018310546900,23.5265998840332030,35.1855010986328100,243.6786956787109400,53.3943290710449200,23.5178909301757800,28.1195793151855470,124,126,94,84,61,14987,2158304201,2159565293,2163248064,2148294034,2151988644,2152757833,2154456429,2147821952,1672,2,16,3815
1353626170,5808,85.3099975585937500,23.6886997222900400,35.1786994934082000,244.1927947998047000,48.7439498901367200,23.6618099212646500,28.0391597747802730,111,126,92,84,60,14991,2159958820,2161305965,2165149814,2148377974,2152733714,2153550052,2155262080,2147912000,1984,2,16,55775
1353626260,5808,82.9899978637695300,23.9776000976562500,35.1701011657714840,244.2187957763672000,39.5037994384765600,23.9480705261230470,27.9235706329345700,88,127,91,84,59,14990,2161604736,2162871186,2166614061,2148457078,2153663826,2154457938,2156085037,2148005504,1754,1,15,26356
1353626315,5808,81.2500000000000000,24.1606006622314450,35.1750984191894500,244.5928039550781200,33.6328392028808600,24.1301593780517580,27.8346290588378900,89,126,91,86,60,14993,2161945901,2163002176,2166468077,2148479762,2153999433,2154710409,2156213037,2148020251,1173,1,16,11437
1353626394,5806,79.3000030517578100,24.4510002136230470,35.1896018981933600,244.0214996337890600,25.6420898437500000,24.3782901763916000,27.7611198425292970,89,128,88,86,59,14984,2162575341,2163461403,2166643730,2148533010,2154527881,2155131876,2156461997,2148053787,969,2,15,35097
1353626485,5808,77.5100021362304700,24.6060009002685550,35.2095985412597660,243.0502929687500000,18.8586597442626950,24.5891895294189450,27.7203102111816400,86,128,91,85,59,14994,2162133065,2162810523,2165581449,2148516342,2154529042,2154969024,2156132553,2148025709,1452,2,16,27045
1353626587,5806,75.1299972534179700,24.7292995452880860,35.2090988159179700,242.1035003662109400,14.8734102249145500,24.7131996154785160,27.7129802703857420,86,126,91,85,57,14974,2163727917,2164359296,2167061229,2148637888,2155719478,2156068032,2157028973,2148127387,840,2,16,49347
1353626654,5807,72.9800033569336000,24.7891998291015620,35.2130012512207000,241.3314056396484400,12.1215496063232420,24.7988891601562500,27.7131690979003900,85,129,91,84,57,14997,2165499520,2166108086,2168730294,2148779986,2157096356,2157321645,2158043876,2148239332,863,1,16,50881
1353626721,5809,71.1800003051757800,25.1886005401611330,35.2406005859375000,238.6031036376953000,0.8511006832122803,25.1502704620361330,27.6960296630859380,80,126,93,85,57,14992,2166185691,2166747949,2169266240,2148843318,2158011867,2158086976,2158592786,2148299602,497,1,16,52127
1353626872,5805,68.4800033569336000,25.1912994384765620,35.2436981201171900,237.5549926757812500,-0.2803891897201538,25.1855907440185550,27.7290401458740230,72,123,92,84,57,14992,2169380608,2170139913,2172887094,2149186340,2161366976,2161169609,2161056539,2148566089,3079,2,16,25202
1353626927,5806,65.9000015258789000,25.1916999816894530,35.2440986633300800,237.4411010742187500,-0.3489375114440918,25.1877307891845700,27.7333602905273440,72,124,94,85,57,14982,2175445558,2176895414,2180570029,2149780342,2166182217,2165975680,2165311497,2149026806,2981,2,16,33287
1353626982,5807,62.9000015258789060,25.1916999816894530,35.2439994812011700,237.5525054931640600,-0.3686070144176483,25.1883506774902340,27.7282009124755860,72,124,92,85,55,14979,2176980662,2178281307,2181695945,2150086921,2168624585,2168061714,2166751012,2149209746,2957,2,16,35773
1353627037,5806,59.6199989318847660,25.1923999786376950,35.2439994812011700,237.6302947998047000,-0.4348933994770050,25.1904201507568360,27.7238101959228500,69,123,93,86,56,14981,2180877403,2182419894,2186094985,2150672996,2172761837,2171964022,2169919350,2149583277,2969,2,16,20888
1353627092,5811,56.1899986267089840,25.1970005035400400,35.2439002990722660,237.8222045898437500,-0.5547792911529541,25.1941604614257800,27.7137603759765620,67,124,91,86,57,14981,2186037220,2187889088,2192027209,2151656950,2177922541,2176892096,2173943670,2150122633,3230,2,16,6264
1353627149,5808,52.5900001525878900,25.1986007690429700,35.2443008422851560,237.7754974365234400,-0.6708294153213501,25.1977806091308600,27.7143898010253900,67,124,91,86,57,14970,2197039981,2199912173,2205481654,2153692854,2187843346,2186684937,2182233069,2151229613,3249,1,16,56019
1353627204,5807,49.2000007629394500,25.1984996795654300,35.2443008422851560,237.9394073486328000,-0.6923676133155823,25.1984500885009770,27.7067203521728500,66,121,95,85,58,14978,2205489206,2208930102,2215160182,2155768585,2196158162,2194702098,2188541083,2152189869,3181,1,16,26510
1353627259,5807,46.0000000000000000,25.2015991210937500,35.2434005737304700,238.0643005371093800,-0.7935672998428345,25.2016105651855470,27.6999092102050780,66,122,92,85,58,14973,2208849956,2212214692,2218323163,2157230793,2200215734,2198154395,2190963355,2152711094,3106,2,16,6645
1353627314,5808,42.9700012207031250,25.2031993865966800,35.2434005737304700,238.1793060302734400,-0.8324146866798401,25.2028293609619140,27.6942596435546880,64,124,94,84,59,14971,2213529005,2216842176,2222981970,2159172022,2206267108,2203661010,2195007798,2153457051,3014,2,16,11384
1353627369,5811,40.0699996948242200,25.2052001953125000,35.2420997619628900,238.1898040771484400,-0.9292870759963989,25.2058506011962900,27.6925601959228500,64,122,92,84,58,14974,2241360612,2248061293,2258621019,2166640640,2232078774,2230019264,2217474761,2156945801,2923,1,16,51036
1353627424,5807,37.2500000000000000,25.2050991058349600,35.2430992126464840,238.2286987304687500,-0.9873121976852417,25.2076606750488280,27.6902198791503900,63,120,92,85,55,14972,2244008612,2249813586,2259444598,2168988443,2237910939,2234512036,2220311862,2157745225,3066,1,16,57841
1353627481,5807,34.2799987792968750,25.2145004272460940,35.2403984069824200,238.3264007568359400,-1.3467730283737183,25.2188892364501950,27.6814002990722660,63,124,94,85,56,14958,2242992128,2247368164,2255210980,2171002038,2239108928,2234383506,2218804681,2158071835,3267,1,16,55039
1353627536,5809,31.3400001525878900,25.2231006622314450,35.2369995117187500,238.3361968994140600,-1.6576499938964844,25.2285900115966800,27.6772003173828120,61,122,93,86,57,14964,2278098569,2286665819,2300503561,2185782363,2277702436,2273533888,2252314532,2164486866,3342,1,16,63256
1353627591,5806,28.3099994659423830,25.2236995697021500,35.2346000671386700,238.1520996093750000,-1.6259820461273193,25.2276000976562500,27.6856708526611330,59,121,92,84,58,14968,2260924982,2265415469,2273680292,2182914066,2259822875,2252859245,2232405860,2161928265,3414,1,16,13640
1353627646,5806,25.2099990844726560,25.2247009277343750,35.2341003417968750,238.3936004638672000,-1.7606199979782104,25.2318096160888670,27.6731700897216800,59,123,90,84,58,14971,2300962998,2309803657,2324014683,2205890578,2303573330,2296171081,2268471890,2170081517,3348,1,16,57297
